Weather History for KMSN - March, 2012

Change the Weather History Date:

Sunday, March 4, 2012

  Actual Average Record
Temperature  
Mean Temperature 24 °F 29 °F  
Max Temperature 28 °F 38 °F 69 °F (1983)
Min Temperature 20 °F 21 °F -9 °F (1884)
Degree Days  
Heating Degree Days 41 36  
Month to date heating degree days 139 146  
Since 1 July heating degree days 4781 5632  
Cooling Degree Days 0 0  
Month to date cooling degree days 0 0  
Year to date cooling degree days 0 0  
Moisture  
Dew Point 20 °F    
Average Humidity 80    
Maximum Humidity 92    
Minimum Humidity 68    
Precipitation  
Precipitation 0.02 in 0.06 in 1.86 in (1976)
Month to date precipitation 0.44 0.24  
Year to date precipitation 2.87 2.92  
Snow  
Snow 1.40 in 0.30 in 5.40 in (1982)
Month to date snowfall 6.6 1.2  
Since 1 July snowfall 31.4 42.3  
Snow Depth 3.00 in    
Sea Level Pressure  
Sea Level Pressure 29.89 in    
Wind  
Wind Speed 3 mph (North)    
Max Wind Speed 8 mph    
Max Gust Speed 13 mph    
Visibility 6 miles    
Events Snow    
T = Trace of Precipitation, MM = Missing Value Source: NWS Daily Summary

Daily Weather History Graph

Daily Weather History Graph

Search for Another Location

Airport or City:

Trip Planner

Search our weather history database for the weather conditions in past years. The results will help you decide how hot, cold, wet, or windy it might be!

Date:

Astronomy

Mar. 04, 2012 Rise Set
Actual Time 6:27 AM CST 5:50 PM CST
Civil Twilight 5:59 AM CST 6:19 PM CST
Nautical Twilight 5:26 AM CST 6:52 PM CST
Astronomical Twilight 4:53 AM CST 7:25 PM CST
Moon 1:58 PM CST (3/4) 3:53 AM CST (3/4)
Length of Visible Light 12h 20m
Length of Day
11h 23m
Waxing Gibbous, 84% of the Moon is Illuminated
Mar 4
Waxing Gibbous
Mar 8
Full
Mar 14
Last Quarter
Mar 22
New
Mar 30
First Quarter

Hourly Weather History & Observations

Time (CST) Temp. Windchill Dew Point Humidity Pressure Visibility Wind Dir Wind Speed Gust Speed Precip Events Conditions
12:53 AM 26.1 °F - 21.9 °F 84% 29.82 in 3.0 mi Calm Calm - 0.00 in Snow Light Snow
1:53 AM 25.0 °F - 21.9 °F 88% 29.82 in 5.0 mi Calm Calm - 0.00 in Snow Light Snow
2:37 AM 24.8 °F 20.5 °F 21.2 °F 86% 29.79 in 4.0 mi WNW 3.5 mph - 0.00 in Snow Light Snow
2:53 AM 25.0 °F 20.7 °F 21.0 °F 85% 29.82 in 6.0 mi WNW 3.5 mph - 0.00 in Snow Light Snow
3:53 AM 25.0 °F - 21.0 °F 85% 29.82 in 1.8 mi Calm Calm - 0.00 in Snow Light Snow
4:02 AM 24.8 °F - 21.2 °F 86% 29.79 in 3.0 mi Calm Calm - 0.00 in Snow Light Snow
4:27 AM 24.8 °F 20.5 °F 21.2 °F 86% 29.79 in 2.5 mi West 3.5 mph - 0.01 in Snow Light Snow
4:44 AM 24.8 °F - 21.2 °F 86% 29.79 in 4.0 mi Calm Calm - 0.01 in Snow Light Snow
4:53 AM 25.0 °F - 21.0 °F 85% 29.83 in 5.0 mi Calm Calm - 0.01 in Snow Light Snow
5:29 AM 24.8 °F 20.5 °F 21.2 °F 86% 29.80 in 4.0 mi WNW 3.5 mph - 0.00 in Snow Light Snow
5:53 AM 25.0 °F 20.7 °F 21.0 °F 85% 29.84 in 5.0 mi WNW 3.5 mph - 0.00 in Snow Light Snow
6:53 AM 24.1 °F 19.7 °F 21.0 °F 88% 29.85 in 3.0 mi WNW 3.5 mph - 0.00 in Snow Light Snow
7:11 AM 24.8 °F 20.5 °F 21.2 °F 86% 29.82 in 2.0 mi WNW 3.5 mph - 0.00 in Snow Light Snow
7:43 AM 24.8 °F 19.1 °F 21.2 °F 86% 29.83 in 2.5 mi WNW 4.6 mph - 0.00 in Snow Light Snow
7:53 AM 25.0 °F 19.3 °F 21.0 °F 85% 29.86 in 2.5 mi NW 4.6 mph - 0.00 in Snow Light Snow
8:00 AM 24.8 °F 19.1 °F 21.2 °F 86% 29.83 in 4.0 mi NW 4.6 mph - 0.00 in Snow Light Snow
8:53 AM 24.1 °F 16.0 °F 19.9 °F 84% 29.88 in 6.0 mi NNE 6.9 mph - 0.00 in Snow Light Snow
9:53 AM 24.1 °F 17.0 °F 19.0 °F 81% 29.89 in 10.0 mi NE 5.8 mph - 0.00 in   Overcast
10:53 AM 24.1 °F 18.2 °F 18.0 °F 77% 29.90 in 10.0 mi North 4.6 mph - N/A   Overcast
11:53 AM 25.0 °F 18.1 °F 18.0 °F 75% 29.90 in 10.0 mi NNE 5.8 mph - N/A   Overcast
12:53 PM 26.1 °F 20.5 °F 18.0 °F 71% 29.88 in 10.0 mi North 4.6 mph - N/A   Overcast
1:28 PM 26.6 °F 22.6 °F 19.4 °F 74% 29.84 in 10.0 mi NE 3.5 mph - N/A   Overcast
1:47 PM 28.4 °F - 19.4 °F 69% 29.84 in 9.0 mi Calm Calm - 0.00 in Snow Light Snow
1:53 PM 27.0 °F - 18.0 °F 69% 29.88 in 9.0 mi Calm Calm - 0.00 in Snow Light Snow
2:53 PM 27.0 °F 23.0 °F 19.0 °F 72% 29.88 in 6.0 mi NE 3.5 mph - 0.00 in Snow Light Snow
3:06 PM 26.6 °F 22.6 °F 19.4 °F 74% 29.85 in 6.0 mi North 3.5 mph - 0.00 in Snow Light Snow
3:44 PM 26.6 °F 21.2 °F 17.6 °F 69% 29.87 in 7.0 mi NNE 4.6 mph - 0.00 in Snow Light Snow
3:53 PM 26.1 °F 18.4 °F 18.0 °F 71% 29.91 in 7.0 mi North 6.9 mph - 0.00 in Snow Light Snow
4:40 PM 26.6 °F 20.0 °F 17.6 °F 69% 29.89 in 6.0 mi NE 5.8 mph - 0.00 in Snow Light Snow
4:53 PM 25.0 °F 17.1 °F 19.0 °F 78% 29.94 in 5.0 mi NE 6.9 mph - 0.00 in Snow Light Snow
5:53 PM 24.1 °F 18.2 °F 19.0 °F 81% 29.96 in 3.0 mi NE 4.6 mph - 0.00 in Snow Light Snow
6:53 PM 24.1 °F 19.7 °F 18.0 °F 77% 29.99 in 4.0 mi NE 3.5 mph - 0.00 in Snow Light Snow
7:53 PM 23.0 °F 17.0 °F 18.0 °F 81% 30.00 in 8.0 mi NNE 4.6 mph - 0.00 in Snow Light Snow
8:53 PM 23.0 °F - 18.0 °F 81% 30.02 in 9.0 mi Calm Calm - 0.00 in Snow Light Snow
9:26 PM 23.0 °F - 19.4 °F 86% 29.99 in 8.0 mi Calm Calm - 0.00 in Snow Light Snow
9:53 PM 23.0 °F 18.4 °F 19.0 °F 85% 30.04 in 3.0 mi NNE 3.5 mph - 0.00 in Snow Light Snow
9:59 PM 23.0 °F 18.4 °F 17.6 °F 80% 30.00 in 1.5 mi NNE 3.5 mph - 0.00 in Snow Light Snow
10:10 PM 21.2 °F - 19.4 °F 93% 30.00 in 3.0 mi Calm Calm - 0.01 in Snow Light Snow
10:27 PM 21.2 °F - 19.4 °F 93% 30.01 in 7.0 mi Calm Calm - 0.01 in Snow Light Snow
10:53 PM 21.9 °F - 19.0 °F 89% 30.06 in 6.0 mi Calm Calm - 0.01 in Snow Light Snow
11:53 PM 19.9 °F - 17.1 °F 89% 30.07 in 10.0 mi Calm Calm - 0.00 in   Mostly Cloudy